Дата Пункты Температура Давл., мм. Влажн., % Ветер Погодные явления
Воздуха Воды Направл. Скорость
29.10.18 05:00 Одесса 16.0 15.0 760 91 Пд-З 4 17 ГОДИН
29.10.18 02:00 Одесса 17.0 15.0 760 85 Пд-З 3 14 ГОДИН
29.10.18 11:00 Одесса 17.0 15.0 760 86 Пд-З 2 11 ГОДИН
29.10.18 08:00 Одесса 16.0 15.0 760 91 Пд 4 08 ГОДИН
29.10.18 05:00 Одесса 15.0 15.0 760 94 Пд 2 05 ГОДИН
29.10.18 02:00 Одесса 16.0 15.0 760 92 Пд-З 3 02 ГОДИНИ
28.10.18 11:00 Одесса 15.0 15.0 760 95 Пд-З 2 23 ГОДИНИ
28.10.18 08:00 Одесса 16.0 15.0 760 94 Пд-З 2 20 ГОДИН
28.10.18 05:00 Одесса 16.0 15.0 759 89 Пд-З 3 17 ГОДИН
28.10.18 02:00 Одесса 17.0 15.0 759 89 Пд 3 14 ГОДИН
28.10.18 11:00 Одесса 17.0 15.0 760 86 Пд-З 3 11 ГОДИН
28.10.18 08:00 Одесса 15.0 15.0 760 92 Пд-З 3 08 ГОДИН
28.10.18 05:00 Одесса 15.0 15.0 759 92 Пд-З 2 05 ГОДИН
28.10.18 03:00 Одесса 15.0 15.0 758 88 Пд-З 2 03 ГОДИНИ
27.10.18 09:00 Одесса 15.0 15.0 758 88 Пд-З 4 21 ГОДИНУ
27.10.18 06:00 Одесса 15.0 15.0 757 82 Пд-З 3 18 ГОДИН
27.10.18 03:00 Одесса 17.0 15.0 758 66 Пд 3 15 ГОДИН
27.10.18 12:00 Одесса 17.0 15.0 758 70 Пд-З 2 12 ГОДИН
27.10.18 09:00 Одесса 15.0 15.0 758 87 Пд 4 09 ГОДИН
27.10.18 06:00 Одесса 13.0 14.0 759 85 Пд-З 1 06 ГОДИН
Количество строк
1 2 3 4 5 6 7 8 9 10
Page 8 of 426